Regional Weather Roundup
Issued by NWS

Home | Current Version | Previous Version | Text Only | Print | Product List | Glossary Off
Versions: 1 2 3 4 5 6 7 8 9 10 11 12 13 14 15 16 17 18 19 20 21 22 23 24 25 26 27 28 29 30 31 32 33 34 35 36 37 38 39 40 41 42 43 44 45 46 47 48 49 50

536
ASUS43 KMKX 232300
RWRWI

WISCONSIN REGIONAL WEATHER ROUNDUP
NATIONAL WEATHER SERVICE MILWAUKEE/SULLIVAN WI
500 PM CST THU FEB 23 2017

NOTE: "FAIR" INDICATES FEW OR NO CLOUDS BELOW 12,000 FEET WITH NO
SIGNIFICANT WEATHER AND/OR OBSTRUCTIONS TO VISIBILITY.

WIZ001-002-006>008-014>016-023>028-240000-
NORTHWEST WISCONSIN

CITY           SKY/WX    TMP DP  RH WIND       PRES   REMARKS
SUPERIOR ARPT  CLOUDY    31  24  77 NW8       29.98S WCI  23
ASHLAND        FAIR      30  23  75 W6        29.96R WCI  24
HAYWARD        FAIR      30  22  72 N9        29.92S WCI  22
SIREN          CLOUDY    30  23  74 N7        29.95R WCI  23
CUMBERLAND     MOCLDY    32  23  69 N8        29.89S WCI  25
RICE LAKE      FAIR      35  25  66 N8        29.91S WCI  29
CHETEK         MOCLDY    36  25  66 N7        29.89S WCI  30
LADYSMITH      FAIR      36  26  69 N9        29.90S WCI  29
EAU CLAIRE     NOT AVBL
MENOMONIE      CLOUDY    38  27  64 N12       29.87S WCI  31
NEW RICHMOND   CLOUDY    33  24  69 N13       29.90S WCI  24
OSCEOLA        CLOUDY    32  25  74 N7        29.94S WCI  25
$$

WIZ003>005-009-010-017-018-240000-
NORTH CENTRAL WISCONSIN

CITY           SKY/WX    TMP DP  RH WIND       PRES   REMARKS
MANITOWISH WTR MOCLDY    29  26  91 N3        29.89R
ARBOR VITAE    FAIR      32  27  83 N7          N/A  WCI  25
WOODRUFF       FAIR      32  27  83 N7          N/A  WCI  25
RHINELANDER    FAIR      35  25  66 N8        29.87R WCI  29
EAGLE RIVER    FAIR      32  24  74 N8        29.87R WCI  24
LAND O LAKES   CLOUDY    32  26  80 NW5       29.89S WCI  27
PHILLIPS       CLOUDY    32  25  75 N8        29.88S WCI  25
TOMAHAWK       FAIR      36  24  62 N6        29.86S WCI  31
MEDFORD        FAIR      37  25  61 N9        29.84S WCI  31
MERRILL        NOT AVBL
$$

WIZ029-030-035-036-043>047-240000-
CENTRAL WISCONSIN

CITY           SKY/WX    TMP DP  RH WIND       PRES   REMARKS
WAUSAU         CLOUDY    40  23  50 NE5       29.83S
MOSINEE        CLOUDY    39  25  56 N9        29.85S WCI  33
MARSHFIELD     CLOUDY    39  25  57 NE8       29.83R WCI  33
STEVENS POINT  CLOUDY    40  24  52 NE6       29.85R
WAUPACA        FAIR      44  28  53 E6        29.86R
WAUTOMA        CLOUDY    41  31  67 E8        29.85R
WISC RAPIDS    CLOUDY    43  26  51 NE8       29.85R
CAMP DOUGLAS   NOT AVBL
$$

WIZ011>013-019>022-031-037>040-048>050-240000-
NORTHEAST WISCONSIN

CITY           SKY/WX    TMP DP  RH WIND       PRES   REMARKS
ANTIGO         CLOUDY    37  26  64 N3        29.85R
SHAWANO        CLOUDY    43  27  53 E7        29.87R
OCONTO         FAIR      35  25  67 E7        29.89R WCI  29
STURGEON BAY   FAIR      36  26  67 E7        29.90R WCI  30
GREEN BAY      FAIR      41  30  65 N9        29.88R
MANITOWOC      NOT AVBL
APPLETON       MOCLDY    39  27  60 E7        29.84S WCI  34
CLINTONVILLE   CLOUDY    43  27  52 E6        29.86R
OSHKOSH        CLOUDY    38  30  73 E7        29.85F WCI  33
$$

WIZ032>034-041-042-053>061-240000-
SOUTHWEST WISCONSIN

CITY           SKY/WX    TMP DP  RH WIND       PRES   REMARKS
LA CROSSE      MOCLDY    45  30  55 N13G18    29.81R
SPARTA         MOCLDY    44  32  62 NE13      29.82S
VIROQUA        CLOUDY    43  32  65 NE12      29.78S
BOSCOBEL       CLOUDY    46  33  60 E9G16     29.77F
PRAIRIE DU CHI DRIZZLE   45  32  60 NE9       29.76S
PLATTEVILLE    MOCLDY    42  40  93 NE13G18   29.73F
$$

WIZ056-057-062-063-064-067-068-240000-
SOUTH CENTRAL WISCONSIN

CITY           SKY/WX    TMP DP  RH WIND       PRES   REMARKS
REEDSBURG      CLOUDY    42  32  67 E12       29.79F
BARABOO/DELLS  FAIR      41  32  69 E13       29.81R
LONE ROCK      CLOUDY    45  34  65 E10       29.78F
MINERAL POINT  LGT RAIN  43  37  81 E13G18    29.75F
MADISON        LGT RAIN  40  33  76 NE12      29.80S WCI  33
MIDDLETON      CLOUDY    42  35  75 E15       29.80S
WATERTOWN      CLOUDY    37  33  87 E10G18    29.82F WCI  30
MONROE         LGT RAIN  39  37  93 E16       29.75F WCI  30
JANESVILLE     LGT RAIN  39  37  93 E17       29.78S WCI  30
$$

WIZ051-052-058>065-066-070>072-240000-
SOUTHEAST WISCONSIN

CITY           SKY/WX    TMP DP  RH WIND       PRES   REMARKS
MILWAUKEE      LGT RAIN  37  31  78 NE20      29.83F WCI  27
WAUKESHA       DRIZZLE   34  28  80 NE16G22   29.84F WCI  23
MILWAUKEE/TIMM LGT RAIN  36  28  75 NE14G20   29.86S WCI  27
RACINE         LGT RAIN  36  31  82 N16G30    29.84F WCI  26
KENOSHA        LGT RAIN  36  32  85 NE12      29.84R WCI  28
FOND DU LAC    CLOUDY    39  30  70 E10       29.85S WCI  32
SHEBOYGAN      CLOUDY    35  29  78 NE14      29.87F WCI  26
WEST BEND      CLOUDY    36  32  87 E15       29.85S WCI  26
JUNEAU         CLOUDY    38  33  82 E12       29.84S WCI  30
$$

LSZ147-162-240000-
LAKE SUPERIOR

STATION/POSITION TIME  TEMP    WIND        PRES    WAVE
                       AIR SEA DIR/SP/G            HT/PER
                 (UTC) (F)     (DEG/KT/KT) (MB)    (FT/S)
DEVILS ISLAND    2200   31     240/ 13/ 16 1014.7R
PORT WING        2240   30     250/  6/  8 1015.2R
SAXON HARBOR     2240   32     330/  8/  9 1014.2R
$$

LMZ867-665-643>646-240000-
LAKE MICHIGAN

STATION/POSITION TIME  TEMP    WIND        PRES    WAVE
                       AIR SEA DIR/SP/G            HT/PER
                 (UTC) (F)     (DEG/KT/KT) (MB)    (FT/S)
CHAMBERS ISLAND  2230   34      40/ 12/ 15 1011.9R
NORTHPORT PIER   2240   35     360/ 10/ 12 1012.5R
SISTER BAY       2205   38      30/  9/ 12   N/A
KEWAUNEE LAKESHO 2230   36      70/  5/ 11 1011.5R
SHEBOYGAN LAKESH 2200   36      60/ 12/ 13 1012.3R
PORT WASHINGTON  2240   37      60/ 12/ 16 1012.5S
MILWAUKEE LAKESH 2230   36      40/ 18/ 21   N/A
KENOSHA   LAKESH 2200   36      20/ 21/ 25 1009.8
$$

TC  - TEMPERATURE IN CELSIUS
VSB - VISIBILITY IN STATUTE MILES
WCI - WIND CHILL INDEX
HX  - HEAT INDEX





USA.gov is the U.S. government's official web portal to all federal, state and local government web resources and services.